GEFSCGP_con_cape1000_264.txt.gz
Probability
0 0 0 0 0 0 0 0 0 0 0 0 0 0 6 6 10 10 10 16 16 23 29 32 39 32 52 68 77 84 87 94 94 94 94 90 90 90 87 84 81 81 71 71
0 0 0 0 0 0 0 0 0 0 0 0 0 3 3 10 10 10 6 13 16 26 32 32 39 48 58 77 84 90 94 94 94 94 94 90 90 90 87 84 84 84 77 71
0 0 0 0 0 0 0 0 0 0 0 0 0 0 10 13 10 16 13 13 19 19 29 48 48 52 58 77 94 81 94 94 94 94 94 90 90 87 87 87 84 77 74 74
0 0 0 0 0 0 0 0 0 0 0 0 0 0 6 19 16 16 19 19 19 19 26 35 48 55 58 81 87 97 97 94 94 94 90 90 84 84 84 87 84 81 71 65
0 0 0 0 0 0 0 0 0 0 0 0 0 0 3 16 19 19 19 16 23 19 26 29 39 65 65 68 84 97 97 97 94 94 87 87 87 87 84 84 84 81 77 74
0 0 0 0 0 0 0 0 0 0 0 0 0 0 3 16 23 19 19 19 23 23 23 32 48 65 65 68 74 87 97 97 90 84 87 87 87 84 84 77 81 74 77 77
0 0 0 0 0 0 0 0 0 0 0 0 0 3 6 6 10 13 26 19 19 19 23 29 52 61 68 68 71 90 94 90 87 87 81 81 81 81 77 77 81 77 77 77
0 0 0 0 0 0 0 0 0 0 0 0 0 3 6 6 10 6 19 26 26 19 23 35 39 65 61 68 81 87 94 90 90 87 87 84 87 77 81 77 77 77 77 71
0 0 0 0 0 0 0 0 0 0 0 0 0 6 6 6 3 6 10 23 29 19 23 29 39 39 52 58 77 87 87 94 94 90 90 90 84 84 81 77 74 68 74 68
0 0 0 0 0 0 0 0 0 0 3 0 0 6 6 6 3 10 6 13 26 26 16 29 35 45 45 61 77 87 87 90 94 84 84 77 81 84 84 71 77 71 68 68
0 0 0 0 0 0 0 0 0 0 3 0 0 6 6 6 6 3 10 23 29 32 26 32 32 48 48 48 58 77 81 90 87 87 84 84 81 81 84 77 74 68 71 71
0 0 0 0 0 0 0 0 0 0 6 0 0 6 6 10 3 3 3 13 29 26 29 42 32 45 52 52 58 77 77 84 81 81 84 84 81 74 74 77 71 68 71 74
0 0 3 0 0 0 0 0 0 0 0 0 0 3 6 3 3 3 0 10 35 42 39 42 52 52 58 68 74 74 77 81 74 81 81 81 84 81 74 74 68 71 74 74
0 0 3 0 0 0 0 0 0 0 0 0 0 6 6 10 3 6 13 19 35 45 55 48 77 74 81 87 84 84 84 74 84 84 81 87 84 84 77 74 71 68 68 68
0 0 0 0 0 0 0 0 0 0 0 0 0 6 3 13 6 13 23 23 29 48 55 77 81 77 84 84 84 84 81 84 84 84 87 84 84 81 77 77 74 71 68 68
0 0 0 0 0 0 0 0 0 0 0 0 0 3 3 0 6 19 26 29 42 35 58 74 84 84 84 77 81 81 81 84 84 84 74 84 87 81 77 74 71 74 71 71
0 3 0 0 0 0 0 0 0 3 0 0 6 6 3 6 6 23 39 32 45 48 48 65 74 81 84 77 77 74 81 81 81 81 77 84 84 81 74 71 71 68 71 68
3 19 10 0 6 0 0 0 0 3 3 3 3 3 6 6 13 26 29 45 42 45 42 65 61 71 77 74 74 74 77 81 81 81 77 77 77 71 77 74 71 71 71 68
0 10 0 0 0 0 0 0 0 3 6 3 3 6 6 6 16 23 29 48 48 52 58 65 58 61 68 74 74 77 77 81 77 77 81 77 77 74 77 77 77 71 65 68
0 6 3 0 0 0 0 0 0 3 6 3 6 6 10 13 19 26 32 35 45 55 52 55 52 55 65 71 74 77 77 77 74 77 77 77 77 71 71 71 71 71 68 65
0 3 0 0 0 0 0 0 0 3 6 10 10 13 16 23 19 29 35 42 55 58 58 58 55 61 65 68 68 71 71 74 74 65 71 74 71 71 65 74 71 65 65 58
0 0 6 3 0 0 3 3 6 32 39 23 13 10 13 23 23 29 39 58 58 61 58 65 68 68 65 65 61 65 71 68 71 68 71 71 71 61 58 71 65 61 61 65
3 3 3 3 3 6 10 19 29 32 19 13 10 10 10 16 19 32 45 58 68 61 61 65 65 61 65 65 65 68 68 71 71 65 65 68 61 61 58 61 52 52 55 55
3 3 6 16 6 6 6 16 16 13 16 13 10 13 10 16 16 35 45 58 61 58 61 65 61 58 58 61 61 65 68 68 71 65 65 61 65 58 58 58 48 48 48 52
6 6 10 13 13 10 16 16 13 13 13 13 13 13 13 19 26 35 42 55 55 58 58 55 58 58 58 61 65 65 61 68 68 68 65 58 52 52 48 48 45 45 48 45
0 6 6 16 19 13 13 10 10 13 16 16 23 16 26 23 19 35 45 52 55 55 58 58 58 58 58 58 65 58 65 65 65 61 58 55 52 52 42 45 39 26 19 10

GEFSCGP_con_cape1000_270.txt.gz
Probability
0 0 0 0 0 0 0 0 0 0 0 3 0 0 0 0 0 0 0 3 3 6 6 10 10 13 16 13 19 23 19 19 23 26 23 19 16 23 23 13 13 16 13 10
0 0 0 0 0 0 0 0 0 0 0 3 3 0 0 0 0 3 0 6 3 6 6 10 13 13 29 26 26 23 23 19 23 26 26 19 16 23 19 23 19 19 16 10
0 0 0 0 0 0 0 0 0 0 3 3 3 0 0 0 0 3 3 3 10 10 10 13 16 16 23 26 29 23 19 19 23 26 19 26 19 29 29 26 23 29 16 16
0 0 0 0 0 0 0 0 0 0 0 3 0 0 0 0 0 0 0 3 3 6 10 13 16 13 26 29 32 23 26 29 29 29 35 35 29 29 19 23 26 23 19 13
0 0 0 0 0 0 0 0 0 0 0 0 0 0 0 0 0 0 3 6 10 13 10 10 10 19 23 35 35 35 32 29 32 35 32 35 32 32 29 26 32 23 13 10
0 0 0 0 0 0 0 0 0 0 0 0 0 0 0 0 6 3 6 10 6 16 19 10 13 23 32 39 45 39 42 45 42 39 29 29 32 35 35 35 29 26 13 16
0 0 0 0 0 0 0 0 0 0 0 0 0 3 3 3 3 3 10 10 10 16 16 13 13 16 29 39 45 42 39 45 42 39 35 32 32 39 39 39 39 26 29 26
0 0 0 0 0 0 0 0 0 0 0 0 0 3 3 0 0 3 6 13 16 16 16 13 16 19 19 32 39 42 39 45 39 42 39 42 32 39 32 35 32 32 32 29
0 0 0 0 0 0 0 0 0 0 0 0 3 3 0 0 0 3 10 13 16 13 13 16 13 16 19 19 35 42 42 45 35 42 42 42 35 39 42 35 32 29 23 26
0 0 0 0 0 0 0 0 0 0 0 0 0 0 0 0 0 3 6 19 16 16 16 13 16 13 19 16 29 39 39 39 42 39 45 42 42 42 35 35 35 29 29 26
0 0 0 0 0 0 0 0 0 0 0 0 0 0 0 0 0 0 6 10 16 16 16 13 16 13 13 26 29 35 39 39 39 45 42 42 39 42 39 39 39 39 35 32
0 0 0 0 0 0 0 0 0 0 0 0 0 0 0 0 0 0 3 6 13 13 13 6 10 19 19 19 26 35 35 42 42 48 45 39 35 39 39 39 42 42 35 39
0 0 0 0 0 0 0 0 0 0 0 0 0 3 0 0 3 3 3 10 10 13 6 6 16 23 23 19 16 29 35 42 45 45 45 39 35 42 42 42 42 42 42 42
0 0 0 0 0 0 0 0 0 0 0 0 0 0 0 0 3 0 3 13 23 13 6 3 19 19 16 23 19 29 39 35 39 42 48 48 39 39 39 35 42 39 35 35
0 0 0 0 0 0 0 0 0 0 0 0 3 0 0 3 3 6 6 6 10 13 13 19 23 23 19 29 29 32 39 39 42 52 48 48 45 39 35 35 32 35 32 32
0 0 0 0 0 0 0 0 0 0 3 0 0 0 3 3 3 3 6 16 19 16 23 26 29 32 29 29 29 29 39 45 39 48 52 45 42 42 42 39 26 29 29 32
0 0 0 0 0 0 0 0 0 3 0 0 0 3 3 13 10 10 16 16 13 23 35 35 39 39 26 23 23 26 32 42 42 52 48 39 42 48 45 29 29 23 26 32
0 0 0 0 0 0 0 0 0 3 6 3 6 3 10 13 16 19 19 19 19 26 29 39 35 39 32 26 26 26 29 32 42 39 45 45 39 42 32 29 29 26 23 23
0 0 0 0 0 0 0 0 0 3 6 6 6 6 16 19 16 23 23 19 19 19 23 32 39 39 32 32 29 32 32 39 42 45 48 42 39 35 39 35 29 26 26 26
0 0 0 0 0 0 0 0 0 3 0 0 10 6 10 13 19 19 19 19 19 19 19 26 29 32 35 32 29 35 35 39 35 35 42 42 32 39 32 35 26 26 26 29
0 0 0 0 0 0 0 0 0 0 0 0 6 6 10 10 19 16 16 16 16 16 26 19 26 29 23 32 39 35 39 39 35 39 35 35 26 26 23 26 29 26 29 29
0 0 0 0 0 0 0 3 6 0 3 6 10 10 10 10 16 13 13 13 13 19 19 23 23 29 32 35 42 35 39 42 42 45 35 32 26 29 29 23 26 26 29 29
3 3 0 0 0 0 3 3 3 3 3 6 10 10 10 13 13 13 10 10 16 19 19 23 32 32 29 29 32 35 42 42 42 42 35 29 29 29 32 29 29 29 32 29
3 3 3 3 0 3 3 0 3 3 3 6 10 10 10 3 10 13 16 16 13 19 19 29 29 32 26 26 32 35 42 42 39 39 39 26 26 26 26 26 26 26 29 29
0 3 3 3 3 3 3 6 10 10 6 10 10 13 10 13 13 13 16 16 16 19 23 29 26 23 26 32 32 32 35 39 42 29 29 23 23 26 29 26 19 26 29 26
3 0 0 0 0 0 3 10 10 10 10 13 13 10 13 13 13 19 19 19 26 29 32 29 29 32 29 32 39 35 32 35 35 32 29 26 26 29 26 26 19 10 16 16

GEFSCGP_con_cape1000_276.txt.gz
Probability
0 0 0 0 0 0 0 0 0 0 0 0 0 0 0 0 0 0 0 0 0 3 3 3 3 3 6 6 6 6 6 6 3 3 3 0 3 0 0 0 3 3 6 6
0 0 0 0 0 0 0 0 0 3 3 0 0 0 0 0 0 0 0 0 0 0 3 3 6 6 10 6 6 6 6 6 6 3 3 3 3 3 3 6 3 6 10 6
0 0 0 0 0 0 0 0 3 3 3 0 0 0 0 0 0 0 0 0 6 3 0 3 6 6 6 10 6 6 6 6 6 6 3 3 3 3 6 6 6 6 6 6
0 0 0 0 0 0 0 0 3 3 3 0 0 0 0 0 0 3 0 0 0 6 3 6 6 3 3 0 0 3 3 3 3 3 3 10 6 6 3 6 6 10 13 10
0 0 0 0 0 0 0 0 0 0 0 0 0 0 0 0 3 3 0 0 0 6 3 6 0 0 0 0 3 6 0 0 0 3 3 3 6 3 3 10 13 13 6 10
0 0 0 0 0 0 0 0 0 0 0 0 0 0 3 0 3 3 0 0 0 3 6 3 0 0 0 0 3 10 3 0 0 0 0 3 6 6 3 6 16 16 13 13
0 0 0 0 0 0 0 0 0 0 0 0 0 0 0 0 0 0 0 0 3 3 6 3 0 0 0 0 6 10 6 3 3 6 6 3 3 6 10 10 13 16 19 19
0 0 0 0 0 0 0 0 0 0 0 0 0 0 0 0 0 0 0 3 3 3 0 3 3 0 0 3 6 13 10 6 10 6 10 6 13 13 13 13 23 19 19 19
0 0 0 0 0 0 0 0 0 0 0 0 0 0 0 0 0 3 3 3 3 3 0 0 3 3 3 3 6 10 13 10 6 10 6 16 19 19 19 19 19 19 19 13
0 0 0 0 0 0 0 0 0 0 0 0 0 0 0 0 0 3 6 3 3 0 0 0 0 0 3 3 6 6 10 3 3 6 13 19 19 19 19 19 23 19 16 13
0 0 0 0 0 0 0 0 0 0 0 0 0 0 0 0 0 3 3 6 6 0 0 0 0 3 3 6 6 3 6 6 6 13 16 16 19 23 19 23 23 19 19 16
0 0 0 0 0 0 0 0 0 0 0 0 0 0 0 0 0 0 3 6 6 3 0 3 3 3 3 3 6 3 6 10 13 13 23 19 16 19 16 19 16 19 19 16
0 0 0 0 0 0 0 0 0 0 0 0 0 0 0 0 0 0 0 3 6 3 3 0 0 0 3 0 3 3 3 10 16 19 19 19 19 19 26 16 16 19 16 16
0 0 0 0 0 0 0 0 0 0 0 0 0 0 0 0 0 0 0 3 6 6 3 3 3 0 0 0 3 3 10 10 19 23 23 29 32 23 19 16 16 16 16 16
0 0 0 0 0 0 0 0 0 0 0 0 0 0 0 0 3 3 3 6 6 10 3 0 0 0 0 0 3 3 6 13 19 23 23 29 23 19 23 23 13 13 13 16
0 0 0 0 0 0 0 0 0 0 0 0 0 0 0 3 3 3 6 6 10 6 0 0 0 3 3 3 6 6 3 6 13 19 23 23 19 16 19 16 19 19 16 23
0 0 0 0 0 0 0 0 0 0 0 0 0 0 3 3 3 3 10 16 16 10 6 0 6 10 3 3 6 6 13 13 13 16 16 19 19 23 16 16 23 23 23 19
0 0 0 0 0 0 0 0 0 0 0 3 0 0 6 10 10 10 6 13 10 16 10 6 6 6 10 10 13 19 19 16 16 16 16 16 19 16 19 23 29 29 29 19
0 0 0 0 0 0 0 0 0 0 0 3 3 10 10 6 10 13 6 3 3 3 0 3 6 6 10 13 16 16 16 16 19 16 19 19 16 16 19 23 26 26 19 19
0 0 0 0 0 0 0 0 0 0 0 6 10 10 10 6 6 10 13 10 3 0 3 3 10 10 13 16 16 16 16 19 19 26 19 19 19 19 19 19 16 16 19 19
0 0 0 0 0 0 0 0 0 0 0 3 10 13 13 3 0 3 13 10 3 3 10 10 10 13 13 10 16 16 19 19 19 26 26 19 19 19 26 19 16 16 16 13
0 0 0 0 0 0 0 0 0 0 3 3 13 10 3 3 10 6 10 6 3 3 10 10 16 16 16 10 13 19 19 23 19 23 26 19 19 19 23 19 16 16 19 16
0 0 0 0 0 0 0 0 0 3 3 3 10 3 10 10 6 6 6 6 3 3 3 13 10 19 19 19 19 19 19 19 23 29 26 26 23 23 19 16 16 16 16 13
0 0 0 0 0 0 0 0 3 3 3 3 3 6 3 6 6 6 6 6 3 6 6 10 13 19 13 19 19 16 19 26 32 32 29 23 26 19 19 16 16 19 13 16
0 0 0 0 0 0 0 6 6 10 10 3 3 6 6 6 6 6 6 10 13 10 6 10 13 19 13 10 16 19 26 29 35 29 29 23 19 16 16 16 16 16 13 19
0 0 0 0 0 0 0 10 10 10 10 3 3 6 6 6 6 6 6 10 10 13 10 10 13 19 19 19 13 19 32 32 35 29 26 26 19 23 16 16 6 3 3 3

GEFSCGP_con_cape1000_282.txt.gz
Probability
0 0 0 0 0 0 0 0 0 0 0 0 0 0 0 3 6 6 10 19 16 13 13 10 13 23 29 35 45 55 55 61 71 61 55 55 48 45 45 42 42 45 48 48
0 0 0 0 0 0 0 0 0 0 0 0 0 0 0 3 6 6 10 19 16 16 23 19 23 32 26 39 39 58 71 61 71 71 65 65 55 45 42 42 55 42 48 48
0 0 0 0 0 0 0 0 0 0 3 3 3 0 3 0 3 10 16 19 13 16 23 26 23 26 23 29 32 32 71 68 71 68 55 61 71 61 55 58 58 52 55 45
0 0 0 0 0 0 0 0 0 3 3 3 3 3 6 3 6 10 13 13 13 19 13 13 23 32 32 35 29 52 74 81 84 71 55 58 65 58 61 58 61 61 58 55
0 0 0 0 0 0 0 0 3 3 3 3 3 3 3 3 6 6 26 13 6 13 13 19 23 39 39 32 29 42 71 84 87 77 71 71 55 52 45 58 65 65 65 55
0 0 0 0 0 0 3 3 3 3 3 0 0 0 3 3 3 3 6 16 6 10 13 16 23 32 39 32 35 42 74 84 87 87 77 77 65 68 68 68 58 58 65 61
0 0 0 0 0 0 0 0 0 0 0 0 0 0 3 3 3 3 6 10 13 13 13 16 16 23 39 45 48 55 74 81 81 84 84 84 77 77 74 68 58 58 52 65
0 0 0 0 0 0 0 0 0 0 0 0 3 3 3 3 3 3 10 10 10 10 10 13 19 23 29 45 58 61 71 81 81 81 81 84 81 71 65 68 55 52 48 45
0 0 0 0 0 0 0 0 0 0 0 0 0 3 6 0 0 6 10 6 10 10 13 13 13 26 23 35 55 61 71 74 81 77 81 81 77 77 68 68 65 58 65 58
0 0 0 0 0 0 0 0 0 0 0 0 0 3 0 6 3 3 10 10 6 13 16 16 16 29 29 42 45 61 61 65 74 74 74 65 77 77 81 68 68 61 65 61
0 0 0 0 0 0 0 0 0 0 0 0 0 0 3 3 3 3 6 6 13 13 16 13 23 23 32 39 42 61 61 65 68 74 77 74 68 74 74 71 71 68 65 65
0 0 0 0 0 0 0 0 0 0 0 0 0 0 3 3 3 3 6 10 16 10 16 16 13 29 39 42 48 58 55 58 61 68 68 74 71 71 71 71 71 65 61 61
0 0 0 0 0 0 0 0 0 0 0 0 0 0 6 3 3 3 10 10 19 16 19 23 32 52 55 58 65 58 55 55 55 61 58 71 71 74 74 68 68 58 58 58
0 0 0 0 0 0 0 0 0 0 0 0 0 0 6 6 6 6 16 16 19 19 29 35 52 65 68 68 65 58 55 55 55 61 61 61 71 71 74 61 61 58 58 55
0 0 0 0 0 0 0 0 0 0 0 0 0 0 0 10 6 10 19 13 19 26 29 52 55 61 65 61 65 65 61 58 55 58 58 65 68 65 61 58 61 58 58 55
0 0 0 0 0 0 0 0 0 0 0 0 0 0 3 13 10 10 16 19 26 23 29 48 52 55 58 55 65 65 65 65 68 61 58 58 61 65 58 55 52 52 55 52
0 6 0 0 0 0 0 0 0 0 0 0 0 0 6 6 13 13 26 32 32 29 26 32 42 55 55 52 58 61 61 68 68 68 68 55 52 58 58 52 55 55 55 48
3 6 3 0 0 0 0 0 3 3 3 3 3 3 6 10 23 29 29 32 26 29 32 39 42 45 48 55 55 58 61 61 65 58 55 55 55 55 58 58 58 58 52 48
6 6 0 0 0 0 0 0 0 3 3 6 6 6 19 19 26 23 26 26 23 29 39 39 42 45 48 52 55 55 55 55 58 58 55 55 55 55 55 58 58 58 55 52
3 6 0 0 0 0 0 0 0 3 6 3 10 13 19 16 16 19 23 26 26 35 42 45 45 42 45 52 48 48 48 52 52 55 52 52 55 55 55 55 58 55 55 52
3 3 0 0 0 0 0 0 3 0 10 19 16 16 19 23 29 26 29 29 29 42 39 35 42 35 42 39 45 52 48 52 52 52 52 52 52 52 52 52 48 52 48 45
3 0 3 0 0 0 0 3 6 13 19 19 19 19 23 35 29 29 23 26 26 35 35 35 39 35 39 42 39 48 48 52 52 52 52 52 52 48 48 48 48 45 48 39
0 3 0 3 0 3 3 6 13 10 23 23 23 19 29 26 29 29 26 23 19 23 32 32 32 35 39 42 42 42 48 48 52 48 48 52 48 48 48 48 48 45 48 39
3 0 0 0 0 0 6 6 6 10 16 16 23 26 32 29 29 23 23 23 23 23 26 29 32 32 39 42 42 45 45 48 45 45 48 48 52 48 48 48 48 42 42 45
3 3 3 0 3 3 6 10 13 13 13 16 26 23 26 26 26 19 19 23 23 19 19 26 23 32 35 39 42 39 45 45 48 48 48 48 45 48 48 48 48 42 42 35
6 10 10 3 10 13 13 13 13 13 13 19 19 23 16 23 19 19 19 23 23 23 23 16 23 29 29 35 42 42 42 45 45 42 45 45 45 42 42 39 35 16 19 10